Regional Weather Roundup
Issued by NWS Portland, ME

Current Version | Previous Version | Text Only | Print | Product List | Glossary Off
Versions: 1 2 3 4 5 6 7 8 9 10 11 12 13 14 15 16 17 18 19 20 21 22 23 24 25 26 27 28 29 30 31 32 33 34 35 36 37 38 39 40 41 42 43 44 45 46 47 48 49 50
000 ASUS41 KGYX 232105 RWRGYX WEATHER ROUNDUP FOR MAINE AND NEW HAMPSHIRE NATIONAL WEATHER SERVICE GRAY ME 500 PM EDT TUE MAY 23 2017 MEZ002-005-006-010-012-015-018-020-021-024-026-027-029-232200- MAINE CITY SKY/WX TMP DP RH WIND PRES REMARKS PORTLAND CLOUDY 63 50 62 S7G17 29.80F SANFORD CLOUDY 69 48 47 SW7 29.80F BAR HARBOR CLOUDY 61 51 70 SW12 29.78 WISCASSET CLOUDY 66 50 56 SW7 29.81R ROCKLAND CLOUDY 55 51 86 S7 29.79F FRYEBURG CLOUDY 74 42 31 MISG 29.79F LEWISTONAUBURN CLOUDY 70 47 43 W6 29.79F AUGUSTA MOSUNNY 70 43 37 VRB7 29.79S WATERVILLE CLOUDY 71 46 40 W6 29.75F BANGOR PTSUNNY 69 45 41 W8 29.76F GREENVILLE N/A 66 43 43 VRB7 29.76S MILLINOCKET MOSUNNY 70 43 37 W8 29.75S HOULTON PTSUNNY 68 44 42 W13G20 29.71F PRESQUE ISLE CLOUDY 66 43 43 W10G16 29.72S FRENCHVILLE MOSUNNY 61 42 49 W13 29.71S CARIBOU PTSUNNY 67 45 45 VRB6 29.70F $$ NHZ002-005-008-009-011-012-014-232200- NEW HAMPSHIRE CITY SKY/WX TMP DP RH WIND PRES REMARKS PORTSMOUTH PTSUNNY 64 51 61 SE5 29.79F ROCHESTER CLOUDY 70 46 42 CALM 29.80F NASHUA MOSUNNY 68 49 50 CALM 29.83F MANCHESTER CLOUDY 69 45 41 SW7 29.81F CONCORD MOSUNNY 71 46 40 W7 29.82S LACONIA CLOUDY 71 44 37 W6 29.81F PLYMOUTH FAIR 72 45 37 W8 29.81S BERLIN SUNNY 70 42 36 VRB6 29.80F WHITEFIELD MOSUNNY 68 42 38 W12G22 29.81F JAFFREY CLOUDY 66 49 54 VRB5 29.85F KEENE CLOUDY 68 51 54 SW7 29.84S LEBANON CLOUDY 71 46 40 CALM 29.81F MT WASHINGTON PTSUNNY 41 37 87 NW31 N/A $$ VTZ005-007-008-232200- VERMONT CITY SKY/WX TMP DP RH WIND PRES REMARKS ST JOHNSBURY N/A 71 44 37 MISG 29.79F MONTPELIER MOSUNNY 66 46 48 N7 29.87S BURLINGTON CLOUDY 71 49 45 S7 29.81S $$ MAZ007-012-024-CTZ003-RIZ002-NYZ038-NYZ072-232200- SOUTHERN NEW ENGLAND AND NY CITY SKY/WX TMP DP RH WIND PRES REMARKS BOSTON CLOUDY 62 52 69 E7 29.82F WORCESTER MOSUNNY 66 44 45 W7 29.85F NANTUCKET MOSUNNY 60 51 72 N8 29.83F PROVIDENCE PTSUNNY 71 49 45 W9 29.83F HARTFORD PTSUNNY 70 50 49 N5 29.84F ALBANY CLOUDY 72 46 39 VRB3 29.83F NEW YORK CITY CLOUDY 69 46 43 NE5 29.85F $$ ANZ081-ANZ082-ANZ150-NHZ014-MEZ023>029-232200- COASTAL MARINE OBSERVATIONS STATION/POSITION TIME TEMP WIND PRES WAVE AIR SEA DIR/SP/G HT/PER (UTC) (F) (DEG/KT/KT) (MB) (FT/S) MOUNT DESERT ROC 2100 48 1009.1F ISLE OF SHOALS 2000 56 150/ 13/ 13 1009.8F JEFFREYS LEDGE 2006 52 N/A 2/ 6 CASHES LEDGE BUO 1950 49 50 1010.1 3/ 7 GEORGES BANK BUO 1950 54 47 1008.6 4/ 5 $$ .............KEY.............. WCI - WIND CHILL TC - TEMPERATURE IN CELSIUS VSB - VISIBILITY IN MILES HX - HEAT INDEX FAIR- INDICATES FEW OR NO CLOUDS BELOW 12,000 FT, WITH NO SIGNIFICANT WEATHER AND/OR OBSTRUCTIONS TO VISIBILITY.

USA.gov is the U.S. government's official web portal to all federal, state and local government web resources and services.